This is the latest recevied weather packets stored in our database for station/object DO1BDB-12. If no packets are shown the sender has not sent any weather packets the latest 10 day(s).
| Time | Temp. | Humidity | Pressure | Rain* | Wind** | Luminosity | Snow |
|---|---|---|---|---|---|---|---|
| 1778240475 | 16.11° C | 33% | 102.2 hPa | - | - | - | - |
| 1778240410 | 17.78° C | 34% | 102.2 hPa | - | - | - | - |
| 1778240343 | 18.33° C | 35% | 102.2 hPa | - | - | - | - |
| 1778240278 | 17.22° C | 35% | 102.2 hPa | - | - | - | - |
| 1778240212 | 17.22° C | 34% | 102.2 hPa | - | - | - | - |
| 1778240146 | 17.78° C | 35% | 102.2 hPa | - | - | - | - |
| 1778240080 | 18.33° C | 33% | 102.2 hPa | - | - | - | - |
| 1778240014 | 17.22° C | 33% | 102.2 hPa | - | - | - | - |
| 1778239948 | 17.22° C | 34% | 102.2 hPa | - | - | - | - |
| 1778239882 | 18.33° C | 35% | 102.2 hPa | - | - | - | - |
| 1778239817 | 17.78° C | 36% | 102.2 hPa | - | - | - | - |
| 1778239751 | 18.33° C | 33% | 102.2 hPa | - | - | - | - |
| 1778239685 | 18.89° C | 34% | 102.2 hPa | - | - | - | - |
| 1778239619 | 17.78° C | 33% | 102.2 hPa | - | - | - | - |
| 1778239553 | 17.78° C | 36% | 102.2 hPa | - | - | - | - |
| 1778239488 | 16.11° C | 36% | 102.2 hPa | - | - | - | - |
| 1778239422 | 15° C | 36% | 102.2 hPa | - | - | - | - |
| 1778239356 | 15° C | 36% | 102.2 hPa | - | - | - | - |
| 1778239290 | 15.56° C | 35% | 102.2 hPa | - | - | - | - |
| 1778239224 | 15° C | 37% | 102.2 hPa | - | - | - | - |
| 1778239158 | 15.56° C | 35% | 102.2 hPa | - | - | - | - |
| 1778239092 | 16.11° C | 34% | 102.2 hPa | - | - | - | - |
| 1778239026 | 16.11° C | 35% | 102.2 hPa | - | - | - | - |
| 1778238961 | 15° C | 35% | 102.2 hPa | - | - | - | - |
| 1778238895 | 16.11° C | 34% | 102.2 hPa | - | - | - | - |
* Rain since midnight (hover to see other rain measurements)
** Current wind speed in m/s (hover to see current wind gust speed)